TJS-22

Last updated on Sun Apr 12 2026 00:02:57 GMT+0000 (Coordinated Universal Time)

1 66990U 25290A 26101.05385304 -.00000009 00000+0 00000+0 0 9994 2 66990 1.6936 285.7962 0002466 2.2966 357.0692 1.00274110 1356
UTC large
Height (km)
Speed (km/s)
/
Latitude / Longitude
Inclination (degrees)
Orbital Period (minutes)
Azimuth
Elevation
Range (km)
Doppler Factor

Next 0 passes for location: London (51.5072 / 0.1276)

Sorry there are no passes over London.
TJS-22